Regional Weather Roundup
Issued by NWS

Home | Current Version | Previous Version | Text Only | Print | Product List | Glossary Off
Versions: 1 2 3 4 5 6 7 8 9 10 11 12 13 14 15 16 17 18 19 20 21 22 23 24 25 26 27 28 29 30 31 32 33 34 35 36 37 38 39 40 41 42 43 44 45 46 47 48 49 50

000
ASUS43 KBIS 081302
RWRND

NORTH DAKOTA REGIONAL WEATHER ROUNDUP
NATIONAL WEATHER SERVICE BISMARCK ND
700 AM CST MON FEB 08 2016

NOTE: "FAIR" INDICATES FEW OR NO CLOUDS BELOW 12,000 FEET WITH NO
SIGNIFICANT WEATHER AND/OR OBSTRUCTIONS TO VISIBILITY.


NDZ001>003-009>011-017-081400-
NORTHWEST NORTH DAKOTA

CITY           SKY/WX    TMP DP  RH WIND       PRES   REMARKS
WILLISTON      CLOUDY    23  16  74 NW12      30.36R WCI  12
MINOT          CLEAR     24  14  65 W22       30.25R WCI   9
MINOT AFB      CLEAR     21  17  83 NW17      30.25R WCI   6
$$

NDZ018>021-031>035-040>046-081400-
SOUTHWEST NORTH DAKOTA

CITY           SKY/WX    TMP DP  RH WIND       PRES   REMARKS
BISMARCK       CLEAR     26  17  68 NW16G24   30.27R WCI  14
DICKINSON      CLEAR     18  13  80 NW15      30.29R WCI   4
GARRISON         N/A     20  16  84 NW21      30.26R WCI   4
HETTINGER ARPT CLEAR     20  13  74 NW15      30.32R WCI   6
$$

NDZ004>008-012>016-024-026-027-054-081400-
NORTHEAST NORTH DAKOTA

CITY           SKY/WX    TMP DP  RH WIND       PRES   REMARKS
GRAND FORKS    FLURRIES  13   8  81 N16       30.15S WCI  -3
GRND FRKS AFB  CLOUDY    14   7  73 N17       30.15R WCI  -3
DEVILS LAKE    FLURRIES  16  12  84 N13       30.17R WCI   2
$$

NDZ022-023-025-028>030-036>039-047>053-081400-
SOUTHEAST NORTH DAKOTA

CITY           SKY/WX    TMP DP  RH WIND       PRES   REMARKS
FARGO          HAZE      13   8  81 N28G33    30.13S VSB 3/4 WCI  -8
JAMESTOWN      CLOUDY    20  11  68 N25G33    30.14R WCI   2
$$




USA.gov is the U.S. government's official web portal to all federal, state and local government web resources and services.